Location: Julian California
(33.0790°N, 116.6010°W)
Time: 07:04:01
(UTC-08:00)

Daily predictions for brighter satellites

Satellite Brightness Start Highest point End
(mag) Time Altitude Azimuth Time Altitude Azimuth Time Altitude Azimuth
FENGYUN 3A 3.8 17:04:03 10° SSE 17:09:18 54° ENE 17:14:34 10° N
Ariane Rocket 4.3 17:06:20 10° ESE 17:09:52 19° ENE 17:13:24 10° NNE
Cosmos 2084 4.4 17:07:09 10° S 17:11:12 32° ESE 17:15:06 10° NE
COSMO-SKYMED 1 3.5 17:07:56 10° NE 17:11:40 28° E 17:15:22 10° SSE
Cosmos 1408 3.7 17:10:12 10° NNW 17:13:45 48° W 17:17:19 10° SSW
CZ-4 R/B 2.4 17:11:16 10° SE 17:14:30 24° ENE 17:17:47 10° NNE
ATLAS 5 CENTAUR R/B 2.5 17:09:59 10° NNW 17:16:09 73° ENE 17:22:55 10° SE
NOSS 2-1 (C) 3.4 17:16:03 10° SW 17:19:39 68° WNW 17:23:16 10° NNE
Cosmos 1184 Rocket 3.4 17:16:54 10° SSE 17:19:52 34° E 17:22:53 10° NNE
NOSS 2-1 (D) 3.5 17:17:54 10° SW 17:21:28 63° WNW 17:25:05 10° NNE
H-2A R/B 4.2 17:19:05 10° W 17:24:55 69° S 18:03:54 10° ESE
Okean-O 4.2 17:21:15 10° S 17:25:25 41° W 17:29:36 10° NNW
Cosmos 494 Rocket 4.1 17:21:45 10° SSW 17:26:53 81° WNW 17:32:07 10° NNE
USA 116 3.7 17:25:26 10° NNE 17:28:20 37° E 17:31:19 10° S
Cosmos 1151 Rocket 3.4 17:25:23 10° SSW 17:29:35 66° W 17:33:49 10° N
Milstar 3 Cent rocket 3.2 17:26:00 10° W 17:30:56 52° S 17:39:18 10° ESE
Cosmos 1271 Rocket 3.0 17:29:28 10° N 17:33:13 46° E 17:37:00 10° SSE
COSMOS 2487 4.3 17:32:26 10° NNE 17:33:45 14° NE 17:33:45 14° NE
ATLAS 2AS CENTAUR R/B 4.4 17:31:32 10° N 17:35:44 15° NE 17:38:25 13° ENE
YAOGAN 1 3.1 17:33:26 10° SE 17:37:20 34° ENE 17:41:15 10° N
Cosmos 1862 3.6 17:34:09 10° N 17:38:00 42° E 17:41:48 10° SSE
CRYOSAT 2 4.3 17:36:31 10° SSE 17:41:17 66° E 17:46:05 10° N
Cosmos 1331 Rocket 3.9 17:41:32 10° N 17:46:40 66° ENE 17:51:46 10° SSE
Cosmos 2082 Rocket 4.0 17:42:09 10° NW 17:47:16 36° WSW 17:52:22 10° SSW
NOAA 12 4.1 17:43:37 10° SSE 17:48:48 57° ENE 17:54:01 10° N
SL-27 R/B 4.5 17:46:20 10° NW 17:49:34 32° W 17:52:44 10° SSW
USA 161 2.4 17:56:10 18° SSW 17:56:10 18° SSW 17:56:47 10° SSW
H-2A R/B 2.7 17:52:57 10° SSE 17:56:32 54° ENE 18:00:12 10° N
Abrixas rocket 3.6 17:54:52 10° W 17:57:37 28° NNW 17:59:12 18° NNE
SKYMED 2 3.7 17:55:25 10° N 17:59:44 74° WNW 18:04:03 10° SSW
CZ-4C R/B 2.6 17:56:11 10° S 18:00:32 33° ESE 18:02:14 27° ENE
CSL-04 Debris 4.3 17:58:46 10° S 18:04:14 78° WSW 18:09:43 10° NNW
Cosmos 1174 4.4 18:03:15 10° S 18:05:24 28° SE 18:05:24 28° SE
Cosmos 2181 Rocket 4.1 18:00:36 10° N 18:06:31 48° E 18:12:28 10° SSE
OAO 1 Rocket 4.4 18:01:47 10° WNW 18:07:10 79° N 18:09:47 31° E
Envisat 3.5 18:11:01 31° E 18:11:58 34° ENE 18:16:31 10° N
Cosmos 921 Rocket 3.0 18:08:20 10° N 18:12:49 64° ENE 18:17:16 10° SSE
ALOS 4.5 18:09:11 10° SSW 18:13:08 27° W 18:17:06 10° NW
Cosmos 1707 Rocket 3.5 18:09:13 10° S 18:13:28 56° E 18:15:35 27° NNE
CZ-2C R/B 3.6 18:09:55 12° NNE 18:14:12 68° ESE 18:18:51 10° S
Cosmos 2285 Rocket 4.1 18:09:27 10° S 18:15:39 54° ESE 18:20:03 20° NNE
Cosmos 2263 4.3 18:12:48 10° SSW 18:18:33 77° WNW 18:24:06 11° NNE
H-2A R/B 4.0 17:17:18 10° W 18:22:35 59° SSW 18:27:12 20° SE
Cosmos 2184 Rocket 4.2 18:17:29 10° SSE 18:23:29 45° E 18:27:27 21° NNE
Cosmos 2074 Rocket 4.1 18:20:43 10° SSE 18:26:38 50° E 18:30:44 20° NNE
NOSS 3-3 (A) 3.9 18:20:54 10° SW 18:26:45 77° WNW 18:31:05 21° NNE
NOSS 3-3 (C) 3.9 18:21:00 10° SW 18:26:51 78° WNW 18:31:08 22° NNE
DMSP B5D1-3 4.5 18:22:07 10° N 18:27:17 84° WNW 18:32:26 10° SSW
BREEZE-M DEB (TANK) 4.1 18:25:53 10° WNW 18:28:21 24° NNW 18:29:43 21° NNE
Cosmos 1933 4.0 18:24:57 10° SSW 18:28:52 54° W 18:32:50 10° N
Cosmos 972 Rocket 4.2 18:24:50 10° S 18:29:45 46° ESE 18:29:45 46° ESE
Cosmos 1656 Rocket 3.6 18:25:47 10° S 18:31:07 61° ESE 18:32:19 49° ENE
Cosmos 1302 Rocket 4.0 18:28:09 10° NNW 18:33:27 83° WSW 18:38:43 10° SSE
Hubble Space Telescope 3.4 18:34:33 10° SW 18:36:44 14° SSW 18:38:39 11° S
Atlas Centaur 2 3.2 18:37:15 10° W 18:41:54 28° SSW 18:43:31 23° S
Cosmos 1943 Rocket 3.6 18:41:04 10° SW 18:46:06 35° WNW 18:51:09 10° N
Ariane Rocket 4.3 18:43:42 10° S 18:48:28 40° W 18:53:15 10° NNW
CZ-4 R/B 4.2 18:46:40 10° SW 18:49:27 18° W 18:52:17 10° NW
Cosmos 2369 Rocket 4.0 18:45:19 10° WSW 18:50:06 28° WNW 18:54:58 10° N
Timation 2 Rocket 4.1 19:03:05 10° NNW 19:09:06 66° WSW 19:10:57 43° S
ATLAS 2AS CENTAUR R/B 3.5 19:20:38 10° NNW 19:25:53 44° N 19:25:53 44° N
CZ-4C R/B 4.1 19:44:45 10° WSW 19:47:29 23° WNW 19:47:29 23° WNW
